Lapse_Rate
6.3 6.4 6.4 6.7 6.5 6.4 6.4 6.4 6.6 7.1 6.8 6.7 6.7 6.5 6.4 6.7 6.6 6.8 6.7 6.7 6.7 6.5 6.4 6.6 6.9 6.8 6.7 6.9 6.9 7.3 8.1 8.1 7.2 7.6 7.3 7.1 6.9 7.5 7.5 7.3 7.3 6.8 6.8 6.9 7.2 7.5 7.3 8.2 8.7 9.0 8.6 8.9 9.0 8.9
6.3 6.4 6.6 6.5 6.6 6.7 6.9 6.9 7.0 7.6 7.5 7.1 6.9 7.0 6.9 6.9 6.5 6.7 6.9 6.7 6.6 6.6 6.5 6.9 7.1 7.5 7.1 6.8 7.4 7.5 7.7 7.6 7.4 7.3 7.0 7.0 7.5 8.0 7.8 7.3 7.1 6.2 6.2 7.2 7.7 7.6 7.6 8.0 8.2 8.2 8.5 8.5 8.7 8.5
6.4 6.6 6.7 6.9 7.1 7.1 7.1 7.2 7.3 7.2 7.2 7.1 7.2 7.0 7.1 7.1 6.8 6.6 6.8 7.0 6.9 7.0 6.9 7.0 7.1 7.2 7.0 7.2 7.1 7.1 7.5 7.6 7.2 7.3 7.5 7.4 7.5 7.6 7.2 7.1 7.0 6.9 7.0 6.0 6.8 7.3 7.0 7.5 7.7 7.8 8.2 8.5 8.5 8.2
6.4 6.9 7.0 7.1 7.1 7.4 7.8 8.2 7.2 6.9 6.9 7.2 7.1 7.0 7.3 7.4 6.9 6.8 6.7 7.0 7.0 7.0 7.1 7.0 7.2 7.3 6.9 7.1 7.1 6.9 7.0 7.6 7.6 7.2 6.7 6.8 7.3 7.7 7.3 7.4 7.4 7.5 7.6 7.2 7.2 7.6 7.6 7.3 7.2 7.2 7.4 7.7 8.1 8.2
6.6 7.0 7.1 7.1 6.9 7.5 7.8 7.9 7.5 6.9 6.8 7.1 7.1 7.2 7.2 7.3 6.9 6.7 6.5 6.7 7.0 7.0 6.9 7.0 7.2 7.1 7.1 7.1 7.0 6.8 6.6 7.1 7.0 7.2 7.3 7.2 7.4 7.9 7.8 7.5 7.0 7.3 7.5 7.5 7.3 7.9 7.3 7.2 7.3 7.7 7.6 7.8 7.7 7.7
6.7 6.9 7.2 7.3 7.1 6.8 7.0 7.2 7.0 6.9 6.7 6.9 7.1 7.2 7.2 7.2 7.3 6.7 6.9 6.7 6.9 7.0 6.9 7.1 6.8 6.7 7.0 7.0 6.6 6.1 6.8 6.8 6.5 6.4 6.8 6.8 7.3 7.8 7.4 6.9 7.0 7.4 7.6 7.7 7.5 7.4 7.1 7.7 7.4 7.4 7.3 7.4 7.4 7.5
6.7 6.8 7.3 7.2 7.0 6.9 6.9 6.9 6.9 6.9 7.0 7.1 7.1 7.0 6.9 7.0 6.9 6.8 6.9 7.0 7.0 7.2 7.1 6.7 6.6 6.7 6.8 6.4 6.0 6.6 6.9 6.6 7.0 6.8 6.7 6.7 6.9 7.3 7.2 6.7 7.2 7.5 7.6 7.8 7.4 7.0 7.4 7.1 7.1 7.5 7.4 7.3 7.2 7.2
6.7 6.8 7.0 7.1 7.0 7.1 7.1 6.9 6.8 6.7 6.9 6.8 6.9 6.7 6.7 6.7 6.7 6.7 6.9 7.0 7.1 6.9 6.7 6.6 6.4 6.4 6.5 6.6 6.8 6.9 6.4 6.8 6.8 6.5 6.7 6.5 7.2 7.1 6.7 6.8 6.9 7.6 7.5 7.3 7.4 7.5 7.5 7.3 7.3 7.5 7.6 7.6 7.4 7.4
6.8 6.8 7.0 7.2 7.0 6.9 6.6 6.9 6.9 6.8 6.8 6.6 6.6 6.7 6.8 6.8 6.8 6.8 6.8 6.7 6.6 6.4 6.1 6.2 6.4 6.6 6.7 6.7 6.7 7.1 7.4 7.0 7.0 6.5 6.8 7.2 6.9 6.7 6.7 6.8 7.4 7.3 7.2 7.0 6.8 7.2 7.3 7.0 7.0 7.2 7.2 7.3 7.4 7.5
6.6 6.6 6.6 6.8 6.8 6.7 6.9 7.0 6.9 6.7 6.7 6.8 6.9 6.8 6.6 6.7 6.8 6.8 6.4 6.1 5.9 6.0 6.2 6.3 6.4 6.9 7.3 6.9 6.9 7.2 7.0 6.9 6.6 6.6 6.9 6.7 6.8 6.9 7.1 7.1 6.9 6.9 6.9 6.8 6.7 6.7 6.6 6.7 6.8 6.9 7.1 7.1 7.0 7.1
6.5 6.5 6.6 6.5 6.5 6.7 6.9 6.9 6.8 6.8 6.6 6.5 6.2 6.3 6.2 6.1 6.0 5.9 5.9 6.0 6.1 6.2 6.4 6.5 6.4 6.7 7.0 6.9 6.8 6.7 6.8 6.8 6.9 7.2 7.1 6.6 6.4 6.7 7.0 7.1 7.1 6.7 6.7 6.8 6.7 6.5 6.5 6.5 6.6 6.7 6.7 6.7 6.6 6.6
6.2 6.2 6.3 6.4 6.4 6.4 6.5 6.6 6.7 6.7 6.6 6.6 6.6 6.2 6.0 6.1 6.2 6.1 6.1 6.3 6.4 6.8 6.6 6.4 6.5 6.7 6.2 6.3 6.3 6.8 6.9 7.2 7.2 7.1 6.9 6.2 6.2 6.6 6.8 6.7 6.7 6.6 6.6 6.6 6.5 6.5 6.4 6.5 6.6 6.6 6.3 6.2 6.4 6.6
6.1 6.2 6.1 6.1 6.3 6.4 6.4 6.3 6.3 6.3 6.1 6.4 6.5 6.4 6.3 6.1 6.1 6.0 6.2 6.2 6.5 6.7 6.5 7.1 6.8 6.7 6.3 6.2 6.6 7.1 6.8 6.8 7.0 6.9 6.6 6.1 6.4 6.6 6.7 6.8 6.6 6.4 6.0 5.9 6.0 6.2 6.1 6.2 6.3 6.3 6.0 6.2 6.1 5.9
5.7 5.8 5.8 5.9 5.9 6.0 6.1 6.2 6.2 6.3 6.4 6.6 6.5 6.4 6.3 6.2 6.3 6.5 6.4 6.6 6.7 6.4 7.1 6.9 6.6 6.3 6.2 6.6 6.5 6.5 6.9 6.6 6.8 6.9 6.1 5.9 6.3 6.4 6.5 6.4 6.2 5.9 5.8 5.9 5.9 5.9 5.8 5.9 6.1 6.1 6.0 5.8 5.8 5.3
6.1 6.1 6.1 6.2 6.1 6.1 6.2 6.2 6.3 6.4 6.8 6.7 6.5 6.3 6.2 6.1 6.2 6.5 6.8 6.8 6.7 7.2 7.4 7.3 6.4 6.2 6.5 6.6 6.8 6.5 6.5 6.3 6.3 6.0 5.9 5.7 5.7 5.6 5.5 5.6 5.9 5.8 5.9 6.0 5.8 5.9 6.0 6.0 5.9 5.8 5.5 5.3 5.0 4.7
6.4 6.7 6.7 6.6 6.5 6.2 6.3 6.4 6.7 7.0 6.9 6.7 6.4 5.9 6.2 6.2 6.3 6.6 7.5 7.0 6.9 6.8 6.5 6.4 6.3 6.2 6.5 6.2 6.1 6.2 6.1 5.2 5.5 5.7 5.9 5.7 5.6 5.4 5.3 5.2 5.1 5.1 5.1 5.2 5.2 5.3 5.4 5.3 5.2 5.0 4.7 4.3 4.2 4.2
6.5 6.7 7.0 7.0 6.8 6.6 6.7 7.2 7.3 7.5 7.4 7.3 6.9 6.5 6.5 6.6 7.1 7.3 7.4 6.6 6.9 7.0 6.9 6.8 6.4 6.0 5.7 5.7 5.4 5.7 4.7 4.8 5.3 5.4 5.2 5.2 5.1 5.0 5.0 5.0 5.0 5.0 5.1 5.0 4.9 4.6 4.5 4.3 4.2 4.2 4.1 4.1 4.0 3.9
6.8 6.9 6.9 7.3 7.4 7.3 7.0 7.1 7.3 7.2 7.2 7.0 7.1 6.9 6.9 7.0 6.9 6.8 6.5 6.8 6.8 6.6 6.5 6.7 6.5 6.1 5.6 4.6 4.3 4.3 4.9 4.8 5.0 5.2 5.0 4.9 4.7 4.7 4.8 4.9 4.8 4.7 4.6 4.5 4.3 4.2 4.1 4.1 4.1 4.1 4.1 4.1 4.0 4.0
6.3 6.6 6.7 6.8 6.8 6.8 6.8 6.7 6.6 6.3 6.0 6.1 6.3 6.4 6.6 7.0 6.9 6.2 6.1 6.3 6.1 6.0 5.8 6.1 6.1 6.0 5.4 4.8 4.3 3.9 4.2 4.4 4.6 4.6 4.6 4.5 4.6 4.7 4.8 4.7 4.6 4.5 4.4 4.2 4.1 4.1 4.1 4.0 4.0 4.0 4.1 4.1 4.1 4.1
5.8 5.9 6.1 6.2 6.1 5.7 5.8 5.4 5.5 5.5 5.3 5.0 5.1 5.6 5.7 5.7 5.8 5.8 5.9 5.7 5.8 5.7 5.6 5.5 5.0 4.1 3.7 3.3 3.3 3.6 3.7 3.8 4.0 4.3 4.3 4.3 4.3 4.4 4.3 4.3 4.3 4.3 4.3 4.2 4.2 4.1 4.1 4.1 4.1 4.1 4.0 4.0 3.9 3.9
5.6 5.7 5.8 6.0 5.9 5.6 5.4 5.1 5.0 4.9 4.8 4.5 4.1 4.2 4.6 5.2 5.7 5.7 5.7 5.6 5.5 5.3 4.8 3.9 3.9 3.9 3.7 3.5 3.6 3.7 3.8 4.0 3.9 4.0 4.3 4.3 4.1 4.2 4.3 4.3 4.3 4.3 4.2 4.2 4.0 4.0 4.0 4.0 4.0 3.9 3.8 3.8 3.8 3.8
5.6 5.6 5.6 5.5 5.3 5.0 4.4 4.5 4.4 4.4 4.5 4.6 5.1 5.3 5.2 5.1 4.9 4.9 4.3 5.1 4.3 3.1 3.3 2.9 3.2 3.5 3.6 3.8 3.7 3.6 3.6 3.7 3.9 4.1 4.1 4.0 4.0 4.1 4.2 4.2 4.1 4.1 4.0 4.0 4.0 4.0 3.9 3.9 3.9 3.9 4.0 4.0 4.0 4.0
5.7 5.6 5.6 5.5 5.2 4.7 4.5 4.5 4.5 4.3 4.2 4.3 4.5 4.6 4.6 4.7 4.9 5.0 4.8 4.0 3.5 3.3 3.2 3.4 3.5 3.7 3.8 3.8 3.8 3.9 3.9 3.8 3.9 4.0 4.0 4.1 4.2 4.1 4.1 4.1 4.0 3.9 3.9 3.9 3.9 4.0 4.0 4.0 4.1 4.1 4.1 4.1 4.3 4.3
5.9 6.2 6.0 5.7 5.3 5.0 4.9 5.0 4.9 4.8 4.5 4.6 4.4 4.1 4.1 3.9 3.7 3.7 3.0 2.9 2.9 3.1 3.4 3.6 3.6 3.6 3.7 3.7 3.8 3.7 3.7 3.7 3.9 3.9 3.9 3.9 3.9 4.0 3.9 3.8 3.8 3.7 3.8 4.0 4.0 4.1 4.1 4.2 4.3 4.4 4.5 4.5 4.4 4.3
7.1 6.9 6.5 6.1 5.8 5.6 5.4 5.4 5.5 5.3 5.0 4.9 4.9 4.4 4.1 4.0 4.1 3.3 2.9 2.7 2.8 3.1 3.2 3.3 3.5 3.5 3.6 3.6 3.6 3.6 3.7 3.7 3.8 3.9 4.0 3.9 3.9 3.9 3.9 3.8 3.8 4.1 4.1 4.3 4.4 4.6 4.7 4.7 4.6 4.6 4.5 4.4 4.4 4.3
7.5 7.2 6.9 6.7 6.4 6.3 6.0 5.6 5.5 5.5 5.4 5.3 5.0 4.7 4.7 4.8 4.1 3.5 3.4 3.2 3.2 3.3 3.4 3.4 3.3 3.4 3.6 3.7 3.8 3.9 3.9 3.9 3.9 3.8 4.0 4.1 4.1 3.9 3.9 4.3 4.5 4.7 4.8 4.8 4.7 4.8 4.8 4.7 4.7 4.6 4.5 4.5 4.5 4.6
7.2 6.6 6.7 6.7 6.6 6.4 6.0 5.8 5.8 5.9 5.7 5.3 5.2 5.2 5.0 4.7 4.4 4.3 4.1 3.9 3.7 3.6 3.5 3.5 3.5 3.5 3.6 3.8 3.9 3.9 4.0 4.1 4.2 4.3 4.3 4.1 4.2 4.6 4.8 4.9 4.9 4.9 4.9 4.9 4.9 4.9 4.8 4.7 4.6 4.7 4.7 4.7 4.7 4.7
6.8 6.2 6.5 6.3 6.4 6.3 6.2 6.1 5.9 5.7 5.6 5.6 5.6 5.7 5.6 5.4 5.3 5.0 4.5 4.1 4.0 3.9 3.9 3.8 3.8 3.8 3.9 4.0 4.1 4.3 4.5 4.7 4.7 4.6 4.8 4.9 5.1 5.1 5.2 5.2 5.1 5.0 5.0 5.0 4.9 4.8 4.8 4.9 4.8 4.8 4.8 4.9 5.1 5.2
6.4 6.2 6.1 6.0 6.2 6.3 6.2 6.1 5.9 5.8 5.8 5.8 5.8 5.8 5.7 5.7 5.5 5.0 4.5 4.2 4.1 4.0 4.0 4.0 4.2 4.3 4.4 4.6 4.9 5.2 5.1 5.1 5.3 5.3 5.4 5.4 5.4 5.3 5.3 5.2 5.2 5.1 5.1 5.0 5.0 4.9 4.9 4.9 4.9 5.1 5.2 5.3 5.3 5.3
6.2 6.3 6.3 6.4 6.6 6.1 5.8 5.7 5.7 5.7 5.7 5.6 5.6 5.7 5.7 5.7 5.5 5.4 5.2 5.1 5.1 5.1 5.1 5.1 5.1 5.2 5.3 5.4 5.4 5.3 5.5 5.6 5.6 5.7 5.6 5.6 5.5 5.4 5.4 5.3 5.2 5.2 5.2 5.1 5.1 5.1 5.1 5.2 5.3 5.4 5.4 5.4 5.3 5.3
6.2 6.1 6.3 6.3 6.2 6.0 5.9 6.0 6.0 6.1 6.1 6.1 6.2 6.3 6.5 6.4 6.2 5.9 5.7 5.5 5.5 5.4 5.4 5.5 5.5 5.6 5.7 5.6 5.7 5.7 5.8 5.8 5.8 5.8 5.8 5.7 5.7 5.6 5.6 5.5 5.4 5.3 5.3 5.3 5.3 5.5 5.5 5.6 5.6 5.5 5.5 5.4 5.3 5.2
6.6 6.6 6.6 6.6 6.5 6.5 6.6 6.6 6.6 6.7 6.8 6.8 6.7 6.5 6.4 6.3 6.1 5.9 5.8 5.8 5.8 5.9 6.1 6.2 6.2 6.1 6.1 6.1 6.1 6.1 6.1 6.1 6.1 6.0 5.9 5.9 5.9 5.8 5.7 5.6 5.6 5.6 5.6 5.5 5.5 5.6 5.6 5.6 5.5 5.5 5.4 5.3 5.3 5.3
6.8 6.8 6.9 7.0 7.0 7.0 7.0 7.1 7.1 7.0 7.1 6.9 6.8 6.6 6.4 6.4 6.4 6.4 6.4 6.4 6.4 6.4 6.4 6.4 6.3 6.2 6.2 6.2 6.2 6.2 6.2 6.1 6.0 6.0 6.0 6.0 6.0 5.9 5.8 5.7 5.6 5.5 5.6 5.6 5.6 5.6 5.5 5.5 5.4 5.3 5.3 5.3 5.4 5.4
Wind_Speed
27 30 31 31 27 27 29 30 29 34 38 36 36 35 34 33 36 20 11 16 13 9 8 17 19 13 12 17 14 11 12 14 10 13 9 6 7 11 12 9 5 6 10 6 6 6 15 5 4 19 8 2 7 6
28 29 27 22 24 24 26 26 24 21 24 34 35 33 32 32 31 24 5 14 13 9 4 6 11 10 18 22 11 11 19 11 6 10 9 6 4 6 9 9 10 5 9 3 5 3 2 6 5 5 5 2 4 6
27 25 18 21 19 19 21 26 28 25 26 30 32 31 31 31 31 22 5 14 11 5 1 3 12 10 11 15 16 10 11 14 16 11 4 4 5 5 5 10 10 16 15 2 6 7 11 5 3 3 5 5 4 4
24 18 16 16 16 17 14 22 28 28 26 28 33 31 32 32 32 25 7 10 6 4 3 6 5 7 17 11 13 10 10 7 11 11 11 4 4 9 8 6 10 6 12 14 13 15 7 15 11 6 5 6 6 5
22 12 12 15 15 17 17 24 26 26 26 28 31 31 31 32 32 15 7 11 7 2 4 3 6 11 9 10 11 12 11 8 2 4 5 5 6 5 5 8 9 10 9 5 2 5 4 3 5 5 4 6 4 3
18 8 10 13 17 16 19 22 24 25 25 26 31 30 30 31 29 11 3 8 9 2 3 5 5 7 11 13 10 12 11 5 5 4 6 5 11 7 2 5 10 12 10 10 4 2 4 4 2 6 5 7 8 5
16 8 11 14 16 19 22 22 24 26 26 28 32 33 30 29 13 4 4 8 10 4 2 2 3 2 8 9 8 4 7 2 4 4 3 9 9 7 2 7 10 11 12 13 7 7 2 4 3 4 3 6 6 5
20 13 13 18 15 17 21 25 26 30 39 35 36 32 24 20 12 8 11 17 7 4 1 2 1 2 7 4 4 3 5 3 6 2 6 5 5 4 5 12 14 15 12 3 7 5 4 6 3 5 4 2 5 6
22 25 27 26 24 27 30 36 36 36 38 35 28 25 11 7 4 4 10 5 2 2 3 2 3 2 6 3 3 4 3 1 3 7 7 6 4 5 5 10 10 11 12 11 9 7 6 3 6 5 5 6 8 7
21 24 29 30 32 34 36 34 35 33 27 19 6 6 4 3 18 9 3 2 2 2 1 2 2 2 3 1 3 5 4 5 5 4 4 2 4 7 15 10 8 8 11 10 10 6 6 7 7 7 9 8 8 9
21 23 24 28 30 30 27 22 15 10 9 5 4 4 10 14 1 1 3 3 4 4 5 3 5 4 3 1 3 4 4 3 3 5 6 3 3 4 11 12 9 9 10 11 12 11 8 11 10 12 15 16 16 17
20 20 20 21 23 20 16 13 1 2 3 7 9 6 4 2 3 3 3 1 3 4 5 5 3 2 3 4 6 3 3 2 4 3 3 3 2 6 8 12 13 12 14 16 17 17 18 18 16 15 14 14 15 14
18 18 18 16 13 15 19 21 18 15 6 6 3 4 1 1 3 5 6 3 3 4 4 3 3 1 1 4 3 3 3 2 5 2 3 3 3 5 6 8 12 14 15 15 16 17 18 18 16 16 16 14 15 15
18 17 14 11 12 12 12 15 17 7 3 4 3 4 2 3 5 3 4 3 2 2 8 5 4 3 3 2 2 2 1 4 3 3 3 3 5 6 8 8 11 11 12 14 15 15 18 18 18 16 14 13 15 15
17 15 12 10 8 9 13 11 12 4 4 5 4 5 6 3 4 5 5 2 5 5 4 2 1 1 1 0 1 3 2 4 5 3 2 3 7 9 10 9 11 12 11 13 13 15 17 17 18 18 16 16 16 15
16 9 3 5 10 10 8 6 2 3 3 4 7 4 7 5 7 6 7 5 6 6 3 2 1 2 1 2 3 6 3 5 3 3 4 6 9 11 12 12 13 13 14 14 14 16 16 17 18 18 17 15 15 14
6 3 1 6 8 2 7 2 4 5 4 4 4 8 7 4 5 4 5 6 5 3 2 2 4 3 2 4 4 5 4 5 6 6 7 10 10 12 12 14 14 15 16 15 16 16 16 16 16 17 18 15 15 14
4 5 8 6 3 4 3 6 4 5 7 5 4 7 8 6 7 6 6 6 5 3 3 3 4 7 6 4 4 3 6 7 7 8 9 11 11 12 12 15 15 16 16 16 16 16 15 15 15 12 14 13 12 12
7 7 12 10 5 3 4 5 4 4 6 3 4 5 4 5 7 7 7 8 5 6 3 4 6 5 4 4 6 6 7 7 8 9 11 13 13 13 15 15 16 16 16 15 15 12 12 15 12 10 9 9 8 7
9 13 15 9 5 3 4 3 2 4 3 3 3 6 4 4 5 6 9 8 7 4 6 5 5 5 4 5 7 3 7 7 8 9 10 9 9 12 13 12 10 13 12 14 13 14 11 11 10 10 9 9 8 8
8 7 9 5 3 6 3 2 3 2 3 3 3 3 4 5 9 8 7 7 8 4 4 5 5 6 8 8 7 9 10 9 9 8 9 9 8 9 9 9 11 10 10 9 10 10 11 9 8 8 8 7 7 8
2 9 4 7 3 3 3 4 3 2 2 2 2 3 4 4 5 5 4 7 5 6 3 5 7 7 9 13 10 12 12 15 13 10 11 10 9 9 9 8 9 10 10 9 9 9 8 8 7 7 8 8 8 8
4 3 4 6 5 5 3 1 3 4 3 3 2 4 4 4 4 5 4 5 5 6 6 7 10 10 11 12 14 15 13 13 10 10 9 9 10 9 9 9 8 9 9 9 8 8 7 8 8 7 7 7 7 6
7 5 5 5 6 4 2 4 4 3 4 3 4 4 5 4 3 4 4 3 6 6 8 8 6 7 9 13 10 9 9 8 9 9 8 8 9 9 9 9 8 8 8 7 7 7 7 7 8 6 6 6 6 6
6 8 5 7 5 3 4 4 5 4 5 6 4 4 4 3 3 4 4 3 6 7 7 8 8 8 8 8 8 9 11 7 7 9 7 8 8 7 8 8 9 8 6 6 7 7 6 6 6 7 7 6 6 7
7 9 6 7 4 5 5 4 4 6 3 3 5 2 3 3 4 5 3 5 6 7 6 6 6 7 8 8 7 8 7 7 8 8 9 9 7 6 7 7 7 7 7 6 6 7 7 6 5 6 7 8 6 6
6 6 5 5 3 3 4 5 6 5 6 5 3 4 3 3 4 3 4 5 5 6 7 7 7 8 8 8 8 8 7 8 8 8 8 8 9 9 7 7 8 6 6 6 6 6 6 6 5 5 5 6 6 5
5 6 5 6 6 7 4 4 5 6 4 5 2 5 3 5 4 3 4 5 6 6 7 7 7 7 7 7 6 6 6 7 7 8 8 8 7 7 8 6 5 7 6 6 6 5 5 5 5 5 5 5 3 2
5 5 4 6 5 6 7 6 5 4 5 4 2 3 3 3 4 5 5 5 5 5 6 6 6 6 6 6 6 6 6 5 5 6 7 6 6 6 5 5 5 4 4 6 6 6 6 5 4 4 3 2 1 2
4 4 4 6 5 6 5 5 6 5 6 6 5 9 8 5 6 3 3 4 5 5 5 5 4 5 5 5 6 7 7 7 7 5 4 5 5 4 4 4 4 4 3 4 3 4 2 2 4 3 0 2 3 4
3 3 4 5 4 6 6 6 7 8 7 7 7 7 6 4 3 5 5 5 4 4 5 5 5 5 5 5 4 4 5 5 6 8 6 5 5 5 4 4 4 4 3 3 3 4 3 3 1 1 2 3 2 3
4 4 4 4 4 3 3 3 2 3 3 4 4 4 3 3 3 2 2 2 3 4 4 5 5 5 5 5 5 6 7 5 4 4 6 5 4 4 4 3 2 3 3 2 1 1 2 3 3 3 3 5 5 4
7 7 7 5 4 4 2 2 2 2 2 2 2 3 4 4 3 3 2 3 4 5 6 6 6 5 5 5 5 4 5 7 9 9 9 8 7 6 6 4 4 2 2 3 3 2 2 4 4 5 5 5 5 5
Wind_Direction
296 294 289 286 277 265 254 247 247 239 215 209 202 201 197 197 193 198 191 197 194 203 219 220 204 239 235 217 219 207 208 219 219 208 210 200 214 238 220 182 192 196 203 207 226 227 238 1 352 218 218 193 261 284
302 299 296 281 288 271 256 239 216 200 202 197 192 195 189 183 180 186 174 188 191 201 194 317 185 229 227 257 229 210 220 179 234 207 196 215 253 199 197 231 159 160 263 212 194 195 270 216 233 340 16 300 323 323
311 312 302 300 299 288 267 225 200 194 187 184 183 186 181 180 172 169 181 173 185 169 128 240 191 194 246 256 261 238 222 219 192 220 223 207 205 185 207 229 230 198 189 229 293 276 280 276 227 261 299 329 336 337
322 320 320 334 332 332 295 186 174 174 170 173 174 178 173 172 170 172 160 170 139 129 124 192 247 209 223 253 274 278 261 298 219 235 216 196 186 217 199 225 217 230 174 202 220 236 227 287 291 242 312 294 261 282
333 329 345 360 16 33 71 139 150 151 158 162 164 166 162 161 163 159 156 167 173 138 150 151 189 227 222 239 255 236 226 252 289 278 267 182 215 262 204 200 235 232 221 220 180 217 195 248 105 43 323 324 304 199
350 2 23 28 45 66 89 109 127 135 143 153 156 153 151 152 152 153 134 168 181 284 128 165 193 172 212 223 224 238 224 215 232 246 260 226 204 223 217 218 230 260 279 290 223 133 66 80 69 38 2 335 353 328
10 37 53 62 67 81 87 103 118 129 132 140 127 129 133 142 143 156 127 138 147 150 82 138 186 176 233 223 213 217 199 157 248 267 258 223 212 228 248 229 232 241 242 242 248 100 202 241 68 61 14 10 354 1
28 56 83 82 80 95 91 95 101 116 110 109 119 119 113 105 75 56 118 136 134 86 230 163 178 184 196 180 196 170 178 160 228 234 238 213 215 230 234 244 234 258 278 152 129 110 67 90 116 77 65 48 83 66
42 66 86 80 96 103 99 109 104 101 105 109 109 106 84 54 60 85 65 54 284 51 168 119 189 136 345 223 244 162 115 127 278 226 198 176 166 211 207 217 225 233 235 247 136 127 128 150 104 94 95 87 89 88
66 68 76 77 85 97 101 107 106 110 120 130 82 53 69 80 117 118 67 99 128 204 178 162 140 137 131 21 278 151 150 214 210 217 173 214 207 201 18 30 25 39 64 109 121 134 136 134 120 105 88 91 93 91
69 80 85 94 94 90 92 97 96 83 63 57 52 67 127 153 81 75 107 167 150 180 187 173 190 150 145 152 271 172 159 210 187 167 180 185 193 67 8 11 41 44 67 65 62 63 89 112 112 96 72 71 76 80
73 83 89 94 89 69 55 33 327 27 48 91 113 142 157 120 73 97 119 126 197 201 164 148 127 106 148 184 244 176 166 188 193 129 119 204 62 25 39 33 30 55 70 68 72 76 71 75 83 91 89 90 88 90
77 80 94 109 80 52 47 39 33 25 128 143 87 64 121 75 148 166 166 165 205 153 149 155 103 91 255 214 273 73 197 195 121 92 137 59 67 35 39 52 51 57 73 80 84 88 89 88 85 87 90 86 89 86
83 74 64 49 37 26 31 32 20 7 359 51 63 107 356 103 31 12 356 36 47 105 133 181 115 187 201 215 204 83 116 178 124 139 82 57 60 65 66 69 77 73 80 87 87 89 91 91 88 83 84 90 93 92
80 63 54 36 26 13 25 5 358 353 53 47 18 40 45 6 17 348 333 28 357 308 127 118 123 104 30 159 355 208 106 72 30 53 58 65 85 91 84 80 84 86 89 88 90 88 87 86 85 83 79 82 84 85
83 63 8 340 339 326 320 321 325 31 46 56 39 14 356 37 5 4 357 13 356 345 310 34 145 122 25 336 47 16 47 41 45 43 76 84 90 93 93 88 84 85 85 86 84 86 86 84 86 86 82 78 80 83
182 57 268 278 266 310 195 239 55 48 42 43 67 35 16 44 29 358 339 339 309 309 39 346 51 21 298 50 50 18 35 54 68 70 76 78 89 95 95 92 91 91 90 88 88 86 88 90 90 86 86 87 88 85
67 48 6 353 259 93 50 22 66 56 61 27 55 44 57 36 18 15 355 344 349 13 30 46 343 37 24 37 51 55 74 59 58 74 75 77 78 82 87 90 87 86 87 87 89 91 91 90 89 92 98 97 94 84
64 29 12 17 55 74 58 36 21 89 57 65 45 32 50 43 38 23 1 358 13 26 63 49 46 33 40 23 8 9 87 85 85 76 70 67 71 76 80 80 79 79 78 78 77 76 72 69 72 75 74 73 74 88
43 26 354 354 8 77 69 59 29 67 63 104 109 66 67 44 21 39 26 15 35 55 49 42 39 28 5 351 339 76 100 98 92 89 79 71 68 75 75 82 84 87 86 84 79 77 75 71 63 62 66 70 69 57
12 341 336 352 65 62 70 53 72 90 139 110 130 102 59 47 38 34 31 19 43 32 66 24 53 29 27 28 27 51 58 73 79 81 88 85 71 74 77 75 77 79 80 78 78 76 74 77 79 73 64 58 69 86
323 301 9 16 74 76 73 24 69 128 88 128 55 40 44 49 51 51 59 47 66 55 47 28 54 49 50 48 48 51 63 71 66 68 69 75 78 74 72 71 76 77 75 73 71 72 70 66 68 76 93 92 68 53
305 17 34 22 67 42 39 59 32 25 50 68 45 46 36 43 29 27 69 37 45 15 68 54 45 59 64 59 58 56 55 69 72 69 69 69 68 67 72 73 72 79 80 75 79 80 74 70 63 65 61 69 81 84
33 44 30 39 33 67 54 30 14 48 45 39 39 48 35 38 68 72 71 58 25 39 29 57 78 72 60 53 55 60 60 65 75 74 71 79 79 73 72 75 72 68 68 75 75 77 77 72 64 59 68 75 68 72
70 15 2 46 18 44 56 48 19 54 51 33 59 50 27 27 61 67 63 67 36 38 56 48 59 70 78 75 65 53 40 52 73 85 86 89 90 89 78 68 58 54 71 78 77 79 76 76 79 76 64 41 60 67
70 26 35 24 31 38 27 50 38 35 47 64 55 50 14 48 56 57 57 53 43 33 47 66 79 77 65 56 63 49 49 67 71 65 43 29 44 83 95 92 81 58 30 40 80 84 83 77 68 82 104 83 38 49
55 58 49 21 11 59 95 56 50 47 45 35 31 14 29 68 72 78 83 46 65 56 57 63 74 80 83 79 72 65 60 59 71 79 75 63 53 40 53 79 76 59 58 51 45 58 75 81 67 67 76 72 64 43
54 40 62 31 61 35 68 49 38 32 36 346 8 34 44 30 65 53 78 81 83 79 73 63 59 71 79 87 94 101 96 101 106 107 95 74 71 80 86 81 81 73 59 40 54 41 51 50 66 69 54 72 58 39
59 77 77 23 52 55 31 37 44 41 340 321 29 79 90 43 75 106 109 119 127 109 99 95 92 89 78 66 50 37 28 32 91 91 88 89 82 63 59 67 55 35 71 104 71 70 60 61 42 44 48 27 27 10
46 43 86 44 50 53 36 44 51 78 54 64 90 104 101 80 28 63 109 101 96 88 80 74 79 88 88 87 82 68 43 30 20 21 90 86 79 74 59 54 62 51 30 40 49 123 59 169 172 189 88 7 40 353
71 66 73 63 77 89 110 118 90 69 64 71 85 107 114 118 82 38 52 86 104 113 108 104 91 64 62 49 66 104 93 60 40 52 68 82 74 68 54 50 28 19 43 33 28 48 12 316 1 336 21 9 9 317
41 65 110 105 115 149 234 207 77 95 128 101 101 122 173 149 104 113 18 333 123 88 93 116 109 87 79 86 81 66 73 106 104 70 54 64 74 65 69 56 46 35 25 350 42 4 13 349 336 350 338 331 1 332
98 87 98 104 126 157 168 215 118 129 120 108 78 29 36 22 82 97 115 13 16 119 93 89 93 89 73 70 97 104 82 76 72 83 77 67 45 10 318 36 15 28 352 338 337 349 331 349 339 352 329 315 321 334